Regional Weather Roundup
Issued by NWS Kansas City/Pleasant Hill, MO

Home | Current Version | Previous Version | Text Only | Print | Product List | Glossary On
Versions: 1 2 3 4 5 6 7 8 9 10 11 12 13 14 15 16 17 18 19 20 21 22 23 24 25 26 27 28 29 30 31 32 33 34 35 36 37 38 39 40 41 42 43 44 45 46 47 48 49 50
000
ASUS43 KEAX 290910
RWREAX

WEATHER ROUNDUP FOR EASTERN KANSAS AND NORTHWEST MISSOURI
NATIONAL WEATHER SERVICE KANSAS CITY/PLEASANT HILL MO
300 AM CST MON DEC 29 2014

KSZ040-057-103>105-MOZ028-029-037-043-291000-
...KANSAS CITY METROPOLITAN AREA...

CITY           SKY/WX    TMP DP  RH WIND       PRES   REMARKS
K.C. INTL      MOCLDY    25  18  74 SE8       30.20S WCI  16
K.C. DOWNTOWN  PTCLDY    31  21  66 CALM      30.22R
LEES SUMMIT    PTCLDY    29  19  66 E3        30.21S
OLATHE - IXD   PTCLDY    27  20  75 E6        30.20S WCI  20
OLATHE - OJC   FAIR      27  20  75 CALM      30.19S
LAWRENCE       CLEAR     19  17  92 NE5       30.21S WCI  12

$$

MOZ001>008-011>017-020>025-030>033-038>040-044>046-053-054-291000-
...NORTHERN AND CENTRAL MISSOURI...

CITY           SKY/WX    TMP DP  RH WIND       PRES   REMARKS
ST. JOSEPH     MOCLDY    27  23  85 CALM      30.22S
MOSBY            N/A     27  27 100 CALM      30.22F
WARRENSBURG    MOCLDY    25  23  93 CALM      30.22F
WHITEMAN AFB   MOCLDY    25  21  86 CALM      30.19S
CLINTON        PTCLDY    23  21  93 CALM      30.23S
SEDALIA        MOCLDY    24  20  84 CALM      30.22F
WARSAW         NOT AVBL
MARSHALL       CLOUDY    28  23  80 E3        30.25S
CHILLICOTHE      N/A     27  22  81 CALM      30.25R
MOBERLY        PTCLDY    25  19  80 CALM      30.25R
KIRKSVILLE     CLOUDY    25  22  88 CALM      30.24S

$$

MOZ041-047>049-056>058-063>065-088>090-097-291000-
...EASTERN AND SOUTHERN MISSOURI...

CITY           SKY/WX    TMP DP  RH WIND       PRES   REMARKS
ST. LOUIS INTL CLEAR     24  20  84 CALM      30.25F
SPIRIT OF STL  CLEAR     21  18  88 CALM      30.25S
COLUMBIA       PTCLDY    23  20  88 NE5       30.23R WCI  17
JEFFERSON CITY CLEAR     20  17  88 CALM      30.26R
MEXICO         PTCLDY   N/A N/A N/A CALM      30.25R
HANNIBAL       MOCLDY    27  21  80 CALM      30.25S
ROLLA          CLEAR     22  19  89 CALM      30.19S
LEBANON        CLEAR     25  21  86 E5        30.18F WCI  19
OSAGE BEACH    CLEAR     19  16  86 CALM      30.21S
SPRINGFIELD    PTCLDY    21  17  84 CALM      30.17S
BRANSON        PTCLDY    19  18  93 CALM      30.18R
NEVADA         CLEAR     23  21  93 NE3       30.22R
JOPLIN         CLEAR     22  20  92 E5        30.19R WCI  16
WEST PLAINS    CLEAR     20  15  81 CALM      30.19S

$$

IAZ060-094-KSZ022-034>040-054-083-096-NEZ052-066-093-291000-
...KANSAS...SOUTHEAST NEBRASKA AND IOWA...

CITY           SKY/WX    TMP DP  RH WIND       PRES   REMARKS
TOPEKA         CLEAR     24  21  88 CALM      30.20F
MANHATTAN      CLEAR     21  18  88 CALM      30.18S
EMPORIA        CLEAR     21  18  88 SE5       30.17R WCI  15
CHANUTE        CLEAR     20  17  88 CALM      30.19R
WICHITA        CLEAR     25  17  72 E7        30.14R WCI  17
OMAHA          PTCLDY    21  18  88 N8        30.27R WCI  11
LINCOLN        CLOUDY    23  20  88 N9        30.24R WCI  13
FALLS CITY     CLOUDY    30  23  75 CALM      30.20R
LAMONI         CLOUDY    28  23  81 CALM      30.21R
DES MOINES     CLOUDY    28  22  78 NE9       30.26R WCI  19

$$



USA.gov is the U.S. government's official web portal to all federal, state and local government web resources and services.